User: anonymous   Login
Location: ?????
(33.6267°N, 35.4675°E)
Time: 10:35:17
(UTC+00:00)
Language:

H-II Stage 2 - Orbit

View from above orbital plane
View from above orbital plane
View from above satellite
View from above satellite

Ground track
Ground track

The orbit data is extracted from the following two-line orbital elements,

1 22980U 94007C   20022.25822712  .00001240  00000-0  53729-3 0  9992
2 22980  28.5517 244.4375 6763737 179.4008 182.3363  2.92815528256650
Epoch (UTC): 22 January 2020 06:11:50
Eccentricity: 0.6763737
inclination: 28.5517°
perigee height: 301 km
apogee height: 28219 km
right ascension of ascending node: 244.4375°
argument of perigee: 179.4008°
revolutions per day: 2.92815528
mean anomaly at epoch: 182.3363°
orbit number at epoch: 25665

The dashed part of the orbit path shows where the satellite is in the earth's shadow,  

DLR